Notices

What's New in latest Release from April 7th, 2021:

- Updated Glossary, including Speed of Maximum Gust, and Total Hourly Precipitation

- Updated national and regional climate services offices contacts and prices information

- Addition of station inventory lists for 1981-2010, 1971-2000, and 1961-1990 Normals.

If you haven't already, please take our survey and provide feedback about our website: https://eccc.sondage-survey.ca/f/LanguageSelection.aspx?s=442ca660-fcf1-47c0-95a9-59707d6fd709

Hourly Data Report for November 15, 2019

MIRAMICHI RCS
NEW BRUNSWICK
Current Station Operator: ECCC - MSC

47°00'34.000" N
65°27'54.000" W
33.00 m
8100989
71744
ACQ

Download Data

Hourly Data (November 2019)
Hourly Data Report for November 15, 2019
TIME
LST
Temp Definition
°C
Dew Point Definition
°C
Rel Hum Definition
%
Precip. Amount Definition
mm

Wind Dir Definition
10's deg

Wind Spd Definition
km/h
Visibility Definition
km
Stn Press Definition
kPa
Hmdx Definition


Wind Chill Definition


Weather Definition


00:00 -3.0 -4.3 91 0.0 16 17   102.08   -9 LegendNANA
01:00 -2.7 -3.8 92 0.0 17 8   102.02   -6 LegendNANA
02:00 -2.3 -3.1 94 0.2 21 7   101.98   -5 LegendNANA
03:00 -2.2 -3.0 94 0.2 22 3   101.90   -3 LegendNANA
04:00 -2.2 -2.8 96 0.2 15 6   101.77   -5 LegendNANA
05:00 -1.8 -2.3 96 0.2 15 8   101.68   -5 LegendNANA
06:00 -1.4 -1.9 96 0.4 12 3   101.54   -2 LegendNANA
07:00 -1.2 -1.6 97 0.7 5 3   101.37   -2 LegendNANA
08:00 -0.5 -0.7 98 1.3 14 12   101.20   -4 LegendNANA
09:00 0.7 0.1 96 0.0 19 10   101.16     LegendNANA
10:00 0.7 0.2 96 0.0 26 7   101.02     LegendNANA
11:00 0.2 -0.2 97 0.0 25 11   100.93     LegendNANA
12:00 0.7 -0.3 93 0.0 23 14   100.81     LegendNANA
13:00 1.0 -0.5 90 0.0 22 20   100.71     LegendNANA
14:00 1.8 -1.0 82 0.3 24 20   100.64     LegendNANA
15:00 1.7 -0.8 84 0.0 23 22   100.59     LegendNANA
16:00 1.7 -1.2 81 0.0 24 24   100.61     LegendNANA
17:00 1.2 -1.0 85 0.0 22 21   100.57     LegendNANA
18:00 1.0 -1.2 85 0.0 22 21   100.57     LegendNANA
19:00 0.4 -1.7 86 0.0 21 21   100.50     LegendNANA
20:00 -0.1 -2.2 85 0.0 22 19   100.46   -5 LegendNANA
21:00 0.3 -2.1 83 0.0 21 21   100.42     LegendNANA
22:00 0.5 -2.4 81 0.0 23 25   100.40     LegendNANA
23:00 -2.4 -7.2 69 0.0 29 21   100.67   -8 LegendNANA

Notes on Data Quality.

Legend

  • E = Estimated
  • M = Missing
  • NA = Not Available*
  • [empty] = Indicates an unobserved value
Date modified: